Location: Chavannes
(47.1090°N, 0.2226°W)
Time: 11:16:55
(UTC+00:00)

UNISAT 6 - Visible Passes

Search period start: 17 August 2022 00:00
Search period end: 27 August 2022 00:00
Orbit: 605 x 685 km, 97.7° (Epoch: 16 August)

Date Brightness Start Highest point End Pass type
(mag) Time Alt. Az. Time Alt. Az. Time Alt. Az.
17 Aug ? 04:12:26 10° ESE 04:15:50 22° ENE 04:19:19 10° NNE visible
18 Aug ? 19:37:47 10° NNW 19:41:10 20° WNW 19:44:34 10° WSW visible
19 Aug ? 20:03:52 10° NNW 20:05:51 13° WNW 20:07:51 10° W visible
20 Aug ? 03:51:54 10° E 03:54:27 15° ENE 03:57:01 10° NNE visible
21 Aug ? 04:15:34 10° ESE 04:19:09 24° ENE 04:22:49 10° N visible
22 Aug ? 19:41:16 10° NNW 19:44:30 19° WNW 19:47:44 10° WSW visible
23 Aug ? 03:32:56 10° ENE 03:33:06 10° NE 03:33:17 10° NE visible
23 Aug ? 20:07:32 10° NW 20:09:09 12° WNW 20:10:47 10° WNW visible
24 Aug ? 03:54:55 10° E 03:57:44 17° ENE 04:00:35 10° NNE visible
25 Aug ? 04:18:42 10° ESE 04:22:27 27° ENE 04:26:17 10° N visible
26 Aug ? 19:44:44 10° NNW 19:47:48 17° WNW 19:50:50 10° WSW visible
